Theta_e
320 316 316 319 309 307 304 304 309 306 307 314 315 312 314 318 316 314 336 337 337 340 348 350 350 352 352 351 350 350 349 348 346 344 343 342 341 340 340 339 342 342 338 338 338 339 340 340 340
315 314 318 316 305 301 303 309 306 309 311 314 317 317 314 314 327 332 334 338 338 342 348 348 347 351 351 350 350 349 349 347 345 343 342 341 340 339 338 337 340 341 338 337 337 337 337 337 337
314 315 311 309 305 301 303 308 308 312 315 313 315 323 321 321 330 333 340 338 339 342 346 347 346 350 351 350 349 348 347 347 345 344 342 341 340 339 339 339 340 339 337 336 336 335 334 335 335
312 311 310 302 302 306 307 309 310 310 312 317 318 315 326 333 332 336 340 338 339 343 345 344 346 349 349 348 348 347 344 346 345 344 343 342 342 341 341 341 341 340 338 337 337 337 336 335 334
312 308 303 301 302 306 308 309 309 307 309 311 315 313 319 334 337 339 339 337 338 342 345 347 345 347 348 348 348 347 344 345 345 344 344 344 344 342 341 341 340 339 337 336 336 335 334 335 335
303 305 298 298 302 305 303 305 304 304 306 307 309 312 318 336 336 338 338 337 340 341 346 347 339 341 344 346 347 346 345 344 344 344 344 344 344 342 341 341 341 339 337 336 334 334 334 333 332
302 299 297 298 297 299 301 306 304 304 305 306 312 309 322 331 337 338 337 338 340 341 344 346 346 343 337 341 342 343 344 343 342 343 343 342 342 341 341 341 341 338 336 335 335 336 335 335 334
306 302 296 296 294 296 301 303 305 305 304 312 318 311 317 332 337 338 337 337 339 340 341 343 345 345 346 346 335 337 339 339 339 339 337 335 336 337 337 336 339 339 337 335 336 336 335 335 333
308 300 299 296 294 296 302 300 305 307 305 308 312 316 326 335 335 335 334 335 337 337 340 342 342 344 345 345 340 334 333 334 334 334 331 330 337 338 337 332 336 338 336 336 336 335 333 330 328
300 296 299 301 299 298 301 301 302 302 302 305 310 316 326 334 330 329 331 330 332 335 337 340 342 342 343 342 343 345 345 343 340 339 339 336 333 335 336 330 331 333 333 335 334 328 324 322 326
300 295 298 301 305 304 303 303 304 301 300 304 303 306 310 325 328 328 329 331 332 335 338 339 340 343 341 340 342 345 344 344 342 339 339 336 334 334 337 338 335 334 326 333 330 328 328 324 321
299 301 299 300 304 301 302 304 301 303 303 306 307 308 308 308 321 327 328 332 332 333 335 338 340 340 341 342 342 343 343 343 340 340 340 339 336 334 334 335 335 336 333 332 333 330 325 320 316
298 300 301 302 301 301 302 301 303 303 304 306 306 306 307 308 315 324 330 332 334 333 334 336 337 338 340 339 340 341 339 341 341 340 338 338 336 334 333 334 334 333 333 333 331 327 321 316 312
296 296 297 298 298 299 297 299 299 300 303 303 303 304 305 306 307 315 326 329 331 332 333 335 334 337 338 340 340 338 338 339 339 338 336 337 337 335 333 333 333 331 334 332 329 325 319 314 312
296 293 297 297 297 296 299 295 295 299 301 302 303 303 304 305 307 307 312 323 330 332 333 333 334 336 337 338 338 338 337 336 336 338 336 335 337 335 334 334 331 332 329 324 319 316 315 312 309
293 293 291 295 297 297 297 291 298 301 299 298 300 304 303 304 304 304 306 307 315 331 331 332 333 334 336 336 336 336 336 335 335 337 336 335 335 335 334 333 331 331 323 319 315 315 313 311 308
293 289 289 291 296 295 294 290 296 299 298 296 298 299 300 300 301 301 302 303 305 310 327 331 332 332 334 335 335 335 335 334 334 335 337 336 335 334 333 332 332 326 321 317 316 315 313 309 307
284 285 286 286 291 292 290 290 293 297 296 295 295 296 297 298 298 300 301 302 303 305 307 323 332 331 331 333 334 334 333 333 333 332 337 337 334 334 334 333 330 322 319 317 316 313 310 309 308
287 285 285 287 291 288 288 289 291 293 294 293 293 294 295 296 299 301 301 301 302 303 303 304 306 330 330 329 329 330 329 330 331 331 333 335 334 333 333 330 323 317 315 314 312 311 307 306 309
286 284 283 286 287 287 288 288 291 292 291 292 292 293 293 295 296 298 299 300 301 301 302 303 304 305 315 330 331 330 329 329 329 330 330 333 333 333 331 326 319 315 312 312 310 309 306 306 307
284 283 279 278 282 287 286 286 289 291 290 290 291 292 292 291 292 293 295 296 299 299 300 301 302 305 308 311 330 323 319 313 315 321 323 325 329 327 324 321 315 313 311 308 307 308 306 303 304
279 283 281 280 279 278 286 278 286 287 286 287 288 289 289 290 291 292 293 294 295 297 300 301 301 302 307 310 320 321 320 316 316 321 318 316 320 321 319 314 311 308 306 306 306 308 307 306 301
280 282 282 282 281 281 282 280 282 284 282 284 286 287 288 289 290 290 291 293 294 296 297 300 300 300 303 307 312 322 321 323 322 320 315 315 314 312 311 311 308 305 304 304 305 306 305 305 304
283 283 283 285 283 278 279 279 279 278 280 282 284 285 286 288 289 290 291 292 293 294 295 297 299 298 300 302 308 308 321 321 320 317 315 312 309 307 306 306 304 305 302 304 304 304 303 304 304
281 280 276 275 275 273 281 276 277 280 281 282 282 283 285 287 287 289 290 290 292 292 293 294 297 297 298 299 301 304 312 321 319 314 313 308 307 304 304 304 302 302 302 302 302 303 302 302 301
277 278 273 266 269 271 277 273 277 281 283 284 284 284 285 286 286 287 288 290 291 291 292 292 293 296 297 297 298 301 305 313 317 315 312 309 307 306 305 301 302 301 300 300 301 300 300 301 301
277 275 279 273 274 271 275 278 281 282 282 282 282 282 283 284 286 286 287 288 289 290 291 292 292 293 296 297 297 298 301 304 314 312 311 310 308 306 303 301 300 299 298 298 298 298 298 299 299
278 278 273 274 266 265 272 273 275 278 279 281 280 281 282 284 285 286 287 287 289 289 290 292 292 293 294 297 296 297 299 302 306 309 309 308 306 303 301 300 298 297 296 296 296 296 296 297 298
275 273 273 272 271 267 266 271 280 278 278 278 280 282 282 283 284 286 286 288 289 289 289 289 291 292 293 294 295 295 296 298 301 303 304 305 303 301 299 298 297 296 294 295 295 295 295 296 296
276 272 272 268 267 270 268 268 281 279 280 280 280 282 283 284 284 285 286 286 287 288 288 288 289 290 292 293 294 294 294 295 297 298 299 299 298 298 298 296 294 294 293 293 293 293 294 294 294
Wind_Speed
14 6 4 4 6 5 8 2 6 5 5 6 4 6 5 11 5 4 3 8 18 20 21 19 18 19 17 17 17 16 16 15 16 15 15 15 14 13 12 11 8 10 10 10 10 10 10 10 11
11 4 5 3 7 9 6 3 6 4 6 6 7 7 9 8 6 5 8 6 18 19 21 20 16 18 18 17 17 16 16 15 15 15 15 15 14 14 13 13 9 10 11 10 10 9 9 9 10
10 6 5 4 8 11 8 4 3 3 4 2 4 1 7 4 6 5 5 12 18 18 20 19 16 18 19 18 17 16 16 15 15 15 15 15 14 13 13 12 11 11 12 12 11 10 9 9 9
5 5 5 7 13 8 9 5 3 7 5 2 4 10 3 5 4 3 11 15 18 18 19 21 17 18 18 18 16 15 17 15 15 14 14 14 14 12 11 11 10 10 11 11 10 9 9 8 8
5 4 8 10 15 13 1 9 7 11 11 5 2 7 2 5 3 4 13 15 17 17 17 19 16 17 18 18 16 15 17 14 14 14 14 13 13 12 10 10 10 9 9 8 8 8 7 7 7
4 4 7 11 14 4 3 6 8 8 9 9 4 11 7 5 4 7 12 14 16 16 17 17 12 14 15 17 17 16 14 14 14 14 13 13 13 12 10 10 10 11 10 9 9 8 8 8 7
6 4 8 9 9 8 4 10 8 8 9 9 17 8 3 5 5 7 12 14 14 15 14 13 17 14 13 10 12 15 15 14 13 13 13 12 11 11 11 10 10 10 11 10 9 8 7 7 6
5 3 4 5 5 4 5 10 7 11 8 10 6 4 6 10 4 5 10 13 14 10 9 12 13 13 15 14 8 11 13 12 11 11 10 9 8 8 8 8 8 9 10 10 9 8 7 6 6
6 6 8 6 3 2 11 11 12 13 6 8 5 8 9 4 4 4 9 12 14 11 10 11 14 14 14 15 12 10 11 11 10 10 9 9 9 10 11 8 11 9 9 9 9 7 6 6 6
4 3 9 6 2 4 8 12 13 10 13 7 10 8 8 5 3 5 8 12 14 16 14 11 13 12 12 10 13 15 13 11 11 11 12 9 10 10 10 9 8 8 9 9 8 7 5 7 2
7 5 10 7 11 9 8 9 12 12 9 15 15 13 12 5 3 6 9 11 13 14 14 12 11 13 12 9 8 8 7 8 8 12 11 9 7 6 6 6 6 7 7 6 6 6 4 2 1
4 8 4 8 7 7 11 12 10 11 14 18 16 12 13 13 5 9 10 12 10 12 15 13 14 10 11 7 5 10 8 8 7 9 12 8 6 7 7 6 8 7 7 5 6 3 3 3 2
10 7 8 11 8 12 10 10 12 14 10 13 11 12 13 12 10 5 9 10 12 11 13 15 15 11 9 10 7 8 5 7 9 9 10 9 8 7 8 7 7 7 6 4 5 4 4 3 2
4 4 8 7 9 7 12 12 3 12 16 15 13 15 13 14 13 11 5 8 12 9 10 12 13 12 12 10 13 7 7 7 7 8 8 12 8 7 8 7 7 6 4 5 5 5 4 3 2
3 5 6 4 9 5 14 6 1 10 17 18 21 17 17 16 17 15 14 12 10 8 9 11 9 12 11 12 8 8 7 7 6 8 8 9 10 10 9 6 6 4 4 6 4 3 3 4 3
3 3 2 7 13 10 12 4 13 18 14 14 14 17 18 20 24 25 24 19 17 5 7 9 9 10 11 10 9 7 7 6 7 9 8 10 13 12 9 6 6 6 6 6 4 4 4 3 2
7 4 7 6 11 14 12 10 16 15 14 15 17 18 17 19 22 22 23 22 24 21 11 9 11 13 13 12 9 9 10 9 8 9 9 12 11 11 8 8 7 8 7 6 4 5 5 4 4
10 8 9 11 13 15 10 12 15 17 17 17 17 18 19 20 22 22 24 22 22 21 23 12 9 12 13 9 8 7 8 9 8 9 11 13 10 11 10 7 8 8 7 6 6 6 4 4 4
7 9 11 15 10 15 12 11 12 16 18 19 18 19 20 21 20 21 22 22 22 22 23 22 22 10 9 8 8 8 9 9 9 10 13 13 11 12 12 7 8 8 8 7 7 5 7 4 5
8 9 10 7 16 14 12 6 14 15 17 19 20 20 21 22 23 23 24 23 22 22 21 21 21 19 15 9 9 10 8 8 8 8 10 12 12 12 12 11 10 10 8 8 8 9 6 3 6
7 10 15 15 17 10 11 13 8 11 18 18 19 19 20 22 23 22 23 23 22 22 23 22 22 21 17 19 9 3 1 2 3 7 9 9 10 11 12 11 9 10 8 8 10 9 10 5 5
6 16 17 17 12 4 9 3 8 10 13 19 20 20 21 22 22 21 22 23 23 21 19 21 21 22 18 17 14 10 9 9 7 9 8 9 11 13 13 13 11 11 7 8 8 8 8 6 6
7 23 17 12 7 4 5 5 4 9 13 20 19 19 20 20 21 23 22 21 21 20 20 20 20 20 21 20 14 11 14 10 7 7 10 11 9 10 9 11 12 10 6 5 5 8 8 6 6
21 16 7 1 2 4 5 6 4 7 11 15 18 20 20 20 20 19 21 20 19 19 20 20 22 21 21 20 20 19 15 13 8 8 9 8 7 7 8 8 8 10 8 10 9 10 9 7 4
20 16 4 2 2 3 3 9 7 7 10 14 17 20 19 19 20 20 21 20 20 21 22 19 22 22 22 21 20 18 19 11 13 11 10 9 8 7 12 12 10 8 10 9 8 9 7 7 6
10 8 5 6 6 12 13 6 6 6 7 11 14 17 19 19 18 19 20 18 18 20 20 21 22 21 21 21 22 19 17 11 6 9 8 9 9 10 11 12 9 9 10 8 7 6 6 6 6
6 5 6 5 5 6 4 6 7 3 3 10 15 19 19 18 17 19 18 17 17 18 19 19 20 20 20 20 18 18 17 15 13 6 5 6 8 6 10 11 12 11 8 10 9 6 8 7 6
5 6 1 0 6 7 6 11 7 1 11 18 21 20 18 17 17 16 16 17 16 16 17 18 18 18 21 19 17 16 16 15 13 7 8 10 9 10 12 11 11 12 10 9 12 7 8 9 5
2 3 3 3 4 6 8 4 3 10 14 18 18 19 17 18 18 16 15 15 15 16 16 16 16 18 18 20 16 17 16 14 13 8 6 7 8 11 13 14 12 12 12 11 7 8 10 10 10
2 0 3 2 2 7 11 12 11 3 13 15 16 16 14 15 17 17 16 17 16 17 18 17 17 18 17 17 17 15 15 14 11 10 7 4 5 8 12 12 13 13 12 11 7 11 8 10 9
Wind_Direction
282 272 266 247 243 235 255 243 301 289 310 30 318 279 325 314 308 15 153 136 146 154 151 161 152 152 149 145 143 142 140 140 138 135 131 127 127 124 121 116 108 119 119 115 105 98 92 89 85
305 281 230 271 252 237 250 168 242 357 351 312 298 270 257 281 82 87 143 167 150 151 152 163 155 153 152 147 148 145 143 142 142 139 135 132 128 123 119 114 115 122 118 111 109 105 95 87 84
275 253 250 235 242 245 263 94 6 58 52 291 290 246 317 27 72 116 95 173 159 156 157 152 154 154 152 151 152 152 149 146 146 144 142 138 132 127 122 116 118 119 121 117 110 102 95 90 86
279 195 219 244 247 243 288 335 10 323 14 133 330 284 134 43 7 12 140 163 161 160 164 139 153 156 153 150 156 158 160 151 149 149 147 144 137 132 131 128 119 118 119 116 111 105 98 92 85
246 255 241 233 252 263 24 301 295 296 295 272 11 284 279 86 85 119 153 166 162 163 159 154 155 160 155 154 160 162 162 155 154 152 151 148 142 140 140 134 127 124 121 117 111 102 97 93 86
227 292 234 242 250 218 293 332 325 298 313 299 265 259 283 93 144 140 158 168 165 166 149 156 157 161 156 161 165 164 157 158 158 156 152 150 154 143 142 139 136 132 127 121 111 102 95 91 87
280 229 259 283 280 283 10 347 14 348 321 -0 329 285 51 114 97 151 163 167 166 166 141 161 174 165 149 165 166 165 157 161 162 159 154 151 145 147 148 143 142 140 134 128 120 111 98 85 77
273 263 238 219 281 270 43 348 18 12 347 333 352 347 30 30 92 167 170 168 166 152 171 174 172 174 175 177 163 153 152 159 159 156 149 149 149 151 155 150 149 143 138 134 127 114 100 87 73
321 245 230 227 221 63 12 352 353 332 292 329 333 338 354 50 93 196 175 180 170 167 190 187 172 184 182 181 177 159 155 158 153 150 149 152 181 179 162 185 145 143 137 137 131 124 125 134 123
336 310 326 83 49 -0 331 342 337 339 333 356 13 49 20 98 146 213 215 199 189 180 192 191 173 192 184 182 173 190 178 179 182 178 170 188 195 182 182 151 136 144 136 134 139 142 165 204 151
353 312 351 317 4 345 339 330 338 326 321 341 342 335 352 350 256 237 236 239 210 194 181 188 206 192 185 184 173 195 184 186 189 185 175 200 187 173 180 151 165 165 176 178 181 180 204 87 8
170 261 265 294 294 301 308 310 307 305 323 327 322 321 322 307 270 266 255 253 242 218 195 191 209 199 178 178 193 196 186 192 187 186 181 190 183 179 198 179 188 186 182 199 193 174 137 134 95
230 207 228 267 280 282 288 286 295 305 345 354 4 360 348 342 335 262 250 252 253 246 229 196 213 199 196 180 187 202 190 195 194 187 183 197 189 186 193 196 191 197 182 176 190 173 175 155 145
359 310 285 292 288 288 310 308 359 47 14 355 5 2 358 357 347 321 258 252 278 209 247 246 214 203 205 209 187 195 190 200 207 196 188 204 196 188 196 198 197 197 182 177 197 177 173 170 171
296 287 281 24 4 28 343 276 99 57 355 334 0 359 350 348 348 351 341 309 231 268 230 228 224 231 211 209 198 188 195 188 200 205 202 190 209 198 199 189 198 193 170 181 163 167 167 172 173
311 246 290 46 10 29 359 306 351 353 353 360 348 346 1 10 18 6 357 344 329 242 244 239 216 215 220 214 204 200 191 187 191 216 200 196 208 211 199 175 201 166 173 177 173 184 183 182 186
43 343 352 342 42 7 6 326 345 334 355 22 18 13 8 8 9 2 356 351 344 331 276 237 222 217 218 220 212 200 194 194 199 212 206 202 207 209 201 202 193 168 182 176 191 184 188 176 174
335 336 332 338 352 351 340 343 341 45 50 40 31 25 17 15 9 4 359 357 353 348 341 302 226 228 217 216 217 207 199 201 197 203 223 205 198 201 207 196 177 181 183 182 181 177 182 174 157
334 325 335 338 2 343 341 337 64 50 48 40 36 27 22 13 10 10 8 1 360 1 352 341 338 252 225 216 211 213 206 203 201 203 221 217 195 194 198 188 178 188 183 172 179 168 158 156 165
15 16 2 322 346 330 334 345 88 62 47 34 23 20 15 10 7 6 7 5 5 1 353 346 336 327 312 220 217 219 212 208 204 199 207 230 200 191 198 187 184 185 174 171 180 172 168 150 189
5 5 339 311 323 301 356 136 111 69 50 34 26 20 13 8 1 2 -0 2 1 358 353 349 342 330 320 312 234 231 54 60 163 199 206 217 200 188 192 191 176 178 170 175 177 186 175 170 193
335 356 322 316 335 337 338 280 69 28 28 26 23 17 12 7 6 4 -0 358 357 355 347 347 344 340 328 312 291 207 210 199 209 216 204 197 207 197 196 182 175 169 171 179 185 187 185 184 171
329 318 304 304 298 314 37 258 44 39 12 15 16 18 14 9 5 4 3 358 355 354 351 346 346 343 340 330 323 278 226 223 209 211 201 203 207 203 196 185 164 168 153 172 172 184 187 196 172
330 318 308 220 182 233 160 360 60 32 11 4 7 8 7 5 3 2 359 358 357 354 357 352 348 345 343 337 330 334 227 224 211 193 194 191 195 186 187 197 175 165 161 171 177 197 182 181 185
356 353 353 275 277 311 27 320 69 59 28 17 7 0 1 1 359 357 356 355 353 355 353 355 352 345 344 341 335 331 317 235 223 186 195 182 186 200 187 182 180 181 187 183 181 179 174 168 188
339 347 14 311 320 308 300 256 120 116 34 9 1 354 351 353 353 354 353 354 351 349 351 350 353 348 345 343 338 332 324 312 276 229 191 189 200 192 192 177 170 173 173 172 163 163 160 159 172
350 30 346 287 228 267 234 115 170 199 350 349 353 350 347 345 347 347 348 350 350 350 349 347 346 353 349 345 340 334 328 319 297 213 209 203 190 181 181 181 168 156 182 159 156 184 147 159 162
34 5 241 80 299 294 284 293 309 309 328 341 341 340 333 337 338 342 343 344 345 346 342 342 345 348 351 344 344 333 327 325 308 284 214 195 188 172 177 176 175 163 164 167 154 155 152 150 158
329 51 21 277 266 292 310 278 136 354 358 339 338 337 330 329 331 335 339 340 338 339 343 341 341 344 348 348 339 335 331 330 324 296 271 218 189 178 176 178 176 168 163 158 152 151 154 158 163
280 45 15 295 259 280 283 276 277 71 352 338 339 340 329 331 329 333 338 340 337 340 340 341 342 339 343 343 335 334 331 331 333 319 306 282 207 185 178 171 167 161 154 148 165 142 176 159 151